CW1187 Weather Reports


Display with metric or nautical units.
time (UTC)temp
F
wind
direction
speed
MPH
gust
MPH
rain 1hr
in
rain 24hr
in
rain mn
in
humidity
%
barometer
mb
20260902035859 81 212 1.0 4.0 0.00 0.00 0.00 75 1017.4
20260902035036 81 207 1.0 5.0 0.00 0.00 0.00 75 1017.5
20260902035014 81 211 2.0 5.0 0.00 0.00 0.00 75 1017.5
20260902033617 81 205 2.0 5.0 0.00 0.00 0.00 75 1017.4
20260902032929 81 222 2.0 5.0 0.00 0.00 0.00 76 1017.5
20260902032434 81 0 0.0 4.0 0.00 0.00 0.00 76 1017.5
20260902031452 81 203 0.0 3.0 0.00 0.00 0.00 76 1017.5
20260902030911 81 203 1.0 3.0 0.00 0.00 0.00 76 1017.5
20260902030302 81 0 1.0 3.0 0.00 0.00 0.00 76 1017.6
20260902025227 82 200 0.0 3.0 0.00 0.00 0.00 76 1017.6
20260902023929 82 211 1.0 4.0 0.00 0.00 0.00 76 1017.6
20260902022838 82 181 1.0 4.0 0.00 0.00 0.00 76 1017.5
20260902022345 82 180 1.0 4.0 0.00 0.00 0.00 75 1017.5
20260902021141 82 175 1.0 4.0 0.00 0.00 0.00 75 1017.4
20260902021030 82 175 1.0 4.0 0.00 0.00 0.00 75 1017.4
20260902020038 83 178 1.0 3.0 0.00 0.00 0.00 74 1017.3
20260902012044 84 192 1.0 3.0 0.00 0.00 0.00 73 1017.1
20260902011225 85 198 0.0 3.0 0.00 0.00 0.00 72 1017.1
20260902010827 85 205 0.0 2.0 0.00 0.00 0.00 71 1017.0
20260902010238 85 0 0.0 2.0 0.00 0.00 0.00 71 1017.0
20260902005851 85 0 0.0 2.0 0.00 0.00 0.00 71 1017.0
20260902005328 85 0 0.0 2.0 0.00 0.00 0.00 71 1016.9
20260902003501 86 0 0.0 2.0 0.00 0.00 0.00 69 1016.8
20260902002916 86 0 0.0 2.0 0.00 0.00 0.00 68 1016.8
20260902001947 87 0 0.0 1.0 0.00 0.00 0.00 69 1016.8
20260902000815 87 0 0.0 4.0 0.00 0.00 0.00 68 1016.9
20260902000352 87 0 0.0 4.0 0.00 0.00 0.00 67 1017.0
20260902000002 88 0 1.0 5.0 0.00 0.00 0.00 67 1017.0
20260901235239 88 220 2.0 5.0 0.00 0.00 0.00 67 1017.0
20260901234638 88 222 2.0 5.0 0.00 0.00 0.00 67 1017.0
20260901234052 89 0 2.0 6.0 0.00 0.00 0.00 66 1017.1
20260901233829 89 202 0.0 6.0 0.00 0.00 0.00 66 1017.1
20260901233124 89 209 1.0 6.0 0.00 0.00 0.00 65 1017.2
20260901232120 89 0 1.0 4.0 0.00 0.00 0.00 65 1017.2
20260901231942 90 0 0.0 4.0 0.00 0.00 0.00 65 1017.1
20260901231002 90 0 1.0 4.0 0.00 0.00 0.00 63 1017.1
20260901230140 90 236 1.0 4.0 0.00 0.00 0.00 63 1017.0
20260901225629 91 209 0.0 5.0 0.00 0.00 0.00 63 1017.1
20260901225431 91 226 1.0 5.0 0.00 0.00 0.00 62 1017.2
20260901224446 91 220 2.0 7.0 0.00 0.00 0.00 61 1017.1
20260901223502 92 218 1.0 6.0 0.00 0.00 0.00 65 1017.2
20260901222753 92 200 1.0 6.0 0.00 0.00 0.00 60 1017.1
20260901222709 92 200 1.0 6.0 0.00 0.00 0.00 60 1017.1
20260901221343 92 191 2.0 11.0 0.00 0.00 0.00 58 1017.1
20260901220946 93 215 3.0 11.0 0.00 0.00 0.00 57 1017.1
20260901215715 93 191 2.0 6.0 0.00 0.00 0.00 57 1017.0
20260901215517 93 234 2.0 9.0 0.00 0.00 0.00 56 1017.1
20260901215146 93 234 2.0 9.0 0.00 0.00 0.00 56 1017.1
20260901213819 94 0 2.0 8.0 0.00 0.00 0.00 55 1017.1
20260901213349 94 227 2.0 7.0 0.00 0.00 0.00 55 1017.0
20260901212245 95 199 2.0 10.0 0.00 0.00 0.00 53 1017.1
20260901210739 96 212 3.0 8.0 0.00 0.00 0.00 52 1017.2
20260901210407 96 217 3.0 8.0 0.00 0.00 0.00 53 1017.3
20260901210318 96 217 3.0 8.0 0.00 0.00 0.00 53 1017.3
20260901210219 96 217 3.0 8.0 0.00 0.00 0.00 53 1017.3
20260901210040 96 217 2.0 8.0 0.00 0.00 0.00 54 1017.2
20260901201819 96 198 3.0 9.0 0.00 0.00 0.00 54 1017.2
20260901200820 97 220 2.0 9.0 0.00 0.00 0.00 53 1017.2
20260901195914 96 254 2.0 8.0 0.00 0.00 0.00 54 1017.4
20260901195329 96 261 2.0 8.0 0.00 0.00 0.00 55 1017.4
20260901194940 96 243 3.0 9.0 0.00 0.00 0.00 53 1017.4
20260901194846 96 243 3.0 9.0 0.00 0.00 0.00 53 1017.4
20260901194718 96 243 3.0 9.0 0.00 0.00 0.00 53 1017.4
20260901194634 96 243 3.0 9.0 0.00 0.00 0.00 53 1017.4
20260901194507 97 225 3.0 9.0 0.00 0.00 0.00 54 1017.5
20260901193816 96 251 3.0 9.0 0.00 0.00 0.00 53 1017.5
20260901192918 95 255 4.0 12.0 0.00 0.00 0.00 55 1017.5
20260901191922 96 226 3.0 8.0 0.00 0.00 0.00 54 1017.5
20260901191451 96 235 3.0 8.0 0.00 0.00 0.00 61 1017.7
20260901190920 95 220 3.0 11.0 0.00 0.00 0.00 59 1017.7
20260901190440 95 246 3.0 11.0 0.00 0.00 0.00 57 1017.8
20260901185927 95 252 3.0 10.0 0.00 0.00 0.00 55 1017.8
20260901185420 94 265 4.0 14.0 0.00 0.00 0.00 57 1017.9
20260901184955 94 180 3.0 14.0 0.00 0.00 0.00 57 1017.9
20260901184058 95 200 3.0 8.0 0.00 0.00 0.00 56 1017.9
20260901183901 94 253 3.0 8.0 0.00 0.00 0.00 62 1017.9
20260901181418 94 210 3.0 8.0 0.00 0.00 0.00 57 1018.1
20260901175948 94 207 3.0 10.0 0.00 0.00 0.00 57 1018.1
20260901175347 94 230 2.0 10.0 0.00 0.00 0.00 59 1018.3
20260901175125 94 230 2.0 10.0 0.00 0.00 0.00 59 1018.3
20260901174829 94 245 3.0 10.0 0.00 0.00 0.00 58 1018.2
20260901174508 93 242 3.0 9.0 0.00 0.00 0.00 60 1018.2
20260901173920 93 272 3.0 12.0 0.00 0.00 0.00 60 1018.3
20260901171733 92 236 2.0 8.0 0.00 0.00 0.00 59 1018.3
20260901170526 92 229 3.0 7.0 0.00 0.00 0.00 60 1018.5
20260901170000 92 152 2.0 7.0 0.00 0.00 0.00 61 1018.7
20260901164923 92 247 3.0 10.0 0.00 0.00 0.00 63 1018.7
20260901163635 91 232 4.0 9.0 0.00 0.00 0.00 63 1018.8
20260901163134 90 250 2.0 8.0 0.00 0.00 0.00 64 1018.9
20260901162037 90 242 4.0 10.0 0.00 0.00 0.00 63 1018.8
20260901160721 90 240 4.0 12.0 0.00 0.00 0.00 64 1018.8
20260901160318 90 233 2.0 12.0 0.00 0.00 0.00 64 1018.8
20260901155942 90 242 3.0 7.0 0.00 0.00 0.00 64 1018.8
20260901155049 89 256 3.0 9.0 0.00 0.00 0.00 65 1018.8
20260901154933 89 231 3.0 9.0 0.00 0.00 0.00 65 1018.8
20260901153934 88 243 4.0 9.0 0.00 0.00 0.00 65 1018.9
20260901153353 88 242 2.0 8.0 0.00 0.00 0.00 65 1018.9
20260901152401 88 244 3.0 8.0 0.00 0.00 0.00 66 1018.9
20260901151933 88 190 3.0 8.0 0.00 0.00 0.00 66 1018.9
20260901145930 86 227 3.0 9.0 0.00 0.00 0.00 69 1018.9
20260901144827 86 202 2.0 7.0 0.00 0.00 0.00 69 1019.0
20260901143915 85 243 2.0 7.0 0.00 0.00 0.00 70 1018.9
20260901143458 85 244 2.0 6.0 0.00 0.00 0.00 70 1019.0
20260901142718 84 208 3.0 6.0 0.00 0.00 0.00 71 1018.9
20260901141551 84 247 3.0 9.0 0.00 0.00 0.00 72 1018.8
20260901141123 84 247 3.0 9.0 0.00 0.00 0.00 72 1018.8
20260901140853 83 244 2.0 6.0 0.00 0.00 0.00 74 1019.0
20260901140817 83 244 2.0 6.0 0.00 0.00 0.00 74 1019.0
20260901134832 81 251 2.0 7.0 0.00 0.00 0.00 77 1019.0
20260901133841 80 230 1.0 6.0 0.00 0.00 0.00 78 1019.1
20260901132647 79 242 2.0 5.0 0.00 0.00 0.00 79 1019.2
20260901131948 78 234 2.0 6.0 0.00 0.00 0.00 80 1019.2
20260901125948 76 209 3.0 8.0 0.00 0.00 0.00 82 1019.2
20260901125430 76 206 2.0 8.0 0.00 0.00 0.00 82 1019.2
20260901124701 76 198 2.0 8.0 0.00 0.00 0.00 83 1019.2
20260901124024 76 227 3.0 7.0 0.00 0.00 0.00 83 1019.2
20260901124021 75 207 2.0 7.0 0.00 0.00 0.00 83 1019.1
20260901123416 75 217 2.0 8.0 0.00 0.00 0.00 83 1019.1
20260901122754 75 260 3.0 8.0 0.00 0.00 0.00 83 1019.1
20260901122448 75 218 3.0 8.0 0.00 0.00 0.00 83 1019.0
20260901121915 75 177 2.0 7.0 0.00 0.00 0.00 84 1018.9
20260901120618 74 190 2.0 6.0 0.00 0.00 0.00 85 1018.9
20260901120451 74 204 2.0 6.0 0.00 0.00 0.00 85 1018.8
20260901115917 74 197 2.0 4.0 0.00 0.00 0.00 85 1018.7
20260901114925 74 0 1.0 4.0 0.00 0.00 0.00 85 1018.6
20260901113821 73 207 2.0 4.0 0.00 0.00 0.00 85 1018.4
20260901112318 73 208 1.0 5.0 0.00 0.00 0.00 86 1018.4
20260901111856 73 0 2.0 5.0 0.00 0.00 0.00 86 1018.3
20260901110933 73 217 1.0 4.0 0.00 0.00 0.00 86 1018.3
20260901105502 73 214 2.0 5.0 0.00 0.00 0.00 86 1018.1
20260901104023 73 203 1.0 4.0 0.00 0.00 0.00 87 1017.9
20260901103320 73 198 2.0 4.0 0.00 0.00 0.00 87 1017.9
20260901101901 73 196 1.0 5.0 0.00 0.00 0.00 86 1017.9
20260901100944 73 221 0.0 3.0 0.00 0.00 0.00 87 1017.9
20260901100402 73 0 0.0 4.0 0.00 0.00 0.00 87 1017.8
20260901093518 73 0 0.0 3.0 0.00 0.00 0.00 86 1017.7
20260901091937 73 202 1.0 4.0 0.00 0.00 0.00 86 1017.5
20260901091218 73 209 0.0 4.0 0.00 0.00 0.00 86 1017.5
20260901085717 73 224 1.0 6.0 0.00 0.00 0.00 86 1017.4
20260901084242 74 0 0.0 5.0 0.00 0.00 0.00 85 1017.3
20260901082919 74 220 0.0 3.0 0.00 0.00 0.00 85 1017.4
20260901082511 74 221 0.0 3.0 0.00 0.00 0.00 85 1017.4
20260901081946 74 221 0.0 3.0 0.00 0.00 0.00 84 1017.4
20260901080950 74 229 0.0 3.0 0.00 0.00 0.00 84 1017.4
20260901080233 74 229 1.0 3.0 0.00 0.00 0.00 84 1017.4
20260901075518 75 221 0.0 3.0 0.00 0.00 0.00 84 1017.4
20260901074501 75 0 1.0 5.0 0.00 0.00 0.00 83 1017.4
20260901074316 75 0 1.0 5.0 0.00 0.00 0.00 83 1017.4
20260901074225 75 0 1.0 5.0 0.00 0.00 0.00 83 1017.4
20260901073952 75 259 0.0 5.0 0.00 0.00 0.00 83 1017.3
20260901072135 75 244 1.0 5.0 0.00 0.00 0.00 83 1017.3
20260901071426 76 209 1.0 5.0 0.00 0.00 0.00 82 1017.3
20260901065434 76 215 1.0 4.0 0.00 0.00 0.00 81 1017.4
20260901064819 76 221 1.0 4.0 0.00 0.00 0.00 81 1017.3
20260901063443 77 242 1.0 3.0 0.00 0.00 0.00 80 1017.5
20260901062216 77 236 1.0 3.0 0.00 0.00 0.00 80 1017.6
20260901061820 77 234 1.0 4.0 0.00 0.00 0.00 79 1017.6
20260901061736 77 234 1.0 4.0 0.00 0.00 0.00 79 1017.6
20260901060401 78 196 1.0 4.0 0.00 0.00 0.00 78 1017.5
20260901055925 78 239 0.0 3.0 0.00 0.00 0.00 77 1017.5
20260901055324 79 227 1.0 4.0 0.00 0.00 0.00 77 1017.6
20260901053933 79 230 3.0 9.0 0.00 0.00 0.00 76 1017.5
20260901041625 80 167 1.0 5.0 0.00 0.00 0.00 77 1017.9
20260901041450 80 205 2.0 5.0 0.00 0.00 0.00 77 1017.9
20260901040424 80 172 2.0 5.0 0.00 0.00 0.00 77 1017.8